| time (UTC) | temp F | wind direction | speed MPH | gust MPH | rain 1hr in | rain 24hr in | rain mn in | humidity % | barometer mb |
| 20260506111502 | 52 | 150 | 3.0 | 6.0 | 0.00 | 0.00 | 0.00 | 86 | 1016.5 |
| 20260506110103 | 52 | 169 | 1.0 | 5.0 | 0.00 | 0.00 | 0.00 | 86 | 1016.4 |
| 20260506104559 | 52 | 211 | 3.0 | 6.0 | 0.00 | 0.00 | 0.00 | 85 | 1016.2 |
| 20260506103059 | 52 | 160 | 4.0 | 8.0 | 0.00 | 0.00 | 0.00 | 85 | 1015.9 |
| 20260506101559 | 52 | 184 | 4.0 | 8.0 | 0.00 | 0.00 | 0.00 | 85 | 1015.8 |
| 20260506100104 | 53 | 159 | 3.0 | 6.0 | 0.00 | 0.00 | 0.00 | 85 | 1015.7 |
| 20260506094549 | 53 | 212 | 3.0 | 7.0 | 0.00 | 0.00 | 0.00 | 84 | 1015.4 |
| 20260506093047 | 53 | 161 | 3.0 | 7.0 | 0.00 | 0.00 | 0.00 | 84 | 1015.3 |
| 20260506091540 | 53 | 144 | 3.0 | 6.0 | 0.00 | 0.00 | 0.00 | 84 | 1015.3 |
| 20260506090038 | 53 | 165 | 5.0 | 10.0 | 0.00 | 0.00 | 0.00 | 83 | 1015.3 |
| 20260506084549 | 54 | 175 | 3.0 | 7.0 | 0.00 | 0.00 | 0.00 | 82 | 1015.2 |
| 20260506083034 | 54 | 127 | 3.0 | 5.0 | 0.00 | 0.00 | 0.00 | 83 | 1015.2 |
| 20260506081539 | 54 | 149 | 3.0 | 5.0 | 0.00 | 0.00 | 0.00 | 83 | 1015.2 |
| 20260506073036 | 54 | 154 | 3.0 | 5.0 | 0.00 | 0.00 | 0.00 | 83 | 1014.8 |
| 20260506071520 | 55 | 142 | 3.0 | 7.0 | 0.00 | 0.00 | 0.00 | 83 | 1014.8 |
| 20260506061504 | 56 | 148 | 3.0 | 9.0 | 0.00 | 0.00 | 0.00 | 80 | 1014.2 |
| 20260506044625 | 59 | 180 | 4.0 | 8.0 | 0.00 | 0.00 | 0.00 | 71 | 1013.8 |
| 20260506043034 | 59 | 160 | 3.0 | 9.0 | 0.00 | 0.00 | 0.00 | 74 | 1013.6 |
| 20260506041529 | 60 | 107 | 2.0 | 7.0 | 0.00 | 0.00 | 0.00 | 72 | 1013.4 |
| 20260506040028 | 60 | 163 | 3.0 | 10.0 | 0.00 | 0.00 | 0.00 | 73 | 1013.3 |
| 20260506034543 | 60 | 178 | 3.0 | 8.0 | 0.00 | 0.00 | 0.00 | 73 | 1013.2 |
| 20260506033016 | 61 | 144 | 4.0 | 12.0 | 0.00 | 0.00 | 0.00 | 70 | 1013.0 |
| 20260506031512 | 62 | 154 | 4.0 | 17.0 | 0.00 | 0.00 | 0.00 | 69 | 1012.9 |
| 20260506030008 | 63 | 202 | 5.0 | 10.0 | 0.00 | 0.00 | 0.00 | 68 | 1012.8 |
| 20260506024502 | 63 | 178 | 6.0 | 14.0 | 0.00 | 0.00 | 0.00 | 67 | 1012.9 |
| 20260506023111 | 64 | 171 | 7.0 | 11.0 | 0.00 | 0.00 | 0.00 | 67 | 1012.8 |
| 20260506021554 | 65 | 157 | 5.0 | 12.0 | 0.00 | 0.00 | 0.00 | 68 | 1013.0 |
| 20260506020049 | 65 | 172 | 6.0 | 14.0 | 0.00 | 0.00 | 0.00 | 66 | 1012.9 |
| 20260506014545 | 65 | 159 | 5.0 | 10.0 | 0.00 | 0.00 | 0.00 | 66 | 1012.9 |
| 20260506013042 | 66 | 128 | 4.0 | 14.0 | 0.00 | 0.00 | 0.00 | 66 | 1012.9 |
| 20260506011537 | 65 | 169 | 5.0 | 16.0 | 0.00 | 0.00 | 0.00 | 67 | 1013.0 |
| 20260506010032 | 64 | 206 | 5.0 | 13.0 | 0.00 | 0.00 | 0.00 | 1 | 1013.0 |
| 20260506004536 | 64 | 207 | 4.0 | 11.0 | 0.00 | 0.00 | 0.00 | 1 | 1013.0 |
| 20260506003037 | 64 | 207 | 3.0 | 10.0 | 0.00 | 0.00 | 0.00 | 1 | 1013.2 |
| 20260506001519 | 65 | 207 | 4.0 | 10.0 | 0.00 | 0.00 | 0.00 | 1 | 1013.2 |
| 20260506000015 | 66 | 206 | 7.0 | 15.0 | 0.00 | 0.00 | 0.00 | 1 | 1013.4 |
| 20260505234515 | 66 | 206 | 6.0 | 15.0 | 0.00 | 0.00 | 0.00 | 1 | 1013.6 |
| 20260505233008 | 65 | 206 | 4.0 | 10.0 | 0.00 | 0.00 | 0.00 | 1 | 1013.7 |
| 20260505231504 | 64 | 207 | 4.0 | 10.0 | 0.00 | 0.00 | 0.00 | 1 | 1013.9 |
| 20260505230057 | 63 | 206 | 5.0 | 9.0 | 0.00 | 0.00 | 0.00 | 1 | 1014.2 |
| 20260505224554 | 61 | 206 | 5.0 | 10.0 | 0.00 | 0.00 | 0.00 | 1 | 1014.3 |
| 20260505223049 | 61 | 207 | 6.0 | 10.0 | 0.00 | 0.00 | 0.00 | 1 | 1014.4 |
| 20260505221544 | 61 | 206 | 5.0 | 11.0 | 0.00 | 0.00 | 0.00 | 1 | 1014.6 |
| 20260505220055 | 61 | 207 | 6.0 | 12.0 | 0.00 | 0.00 | 0.00 | 1 | 1014.6 |
| 20260505214539 | 60 | 207 | 5.0 | 10.0 | 0.00 | 0.00 | 0.00 | 1 | 1014.8 |
| 20260505213031 | 59 | 207 | 4.0 | 11.0 | 0.00 | 0.00 | 0.00 | 1 | 1014.9 |
| 20260505211526 | 58 | 207 | 4.0 | 10.0 | 0.00 | 0.00 | 0.00 | 1 | 1015.0 |
| 20260505210021 | 57 | 207 | 4.0 | 9.0 | 0.00 | 0.00 | 0.00 | 1 | 1015.1 |
| 20260505204516 | 57 | 206 | 5.0 | 11.0 | 0.00 | 0.00 | 0.00 | 1 | 1015.2 |
| 20260505203012 | 57 | 207 | 6.0 | 13.0 | 0.00 | 0.00 | 0.00 | 1 | 1015.2 |
| 20260505201509 | 56 | 207 | 5.0 | 10.0 | 0.00 | 0.00 | 0.00 | 1 | 1015.4 |
| 20260505200003 | 56 | 207 | 7.0 | 11.0 | 0.00 | 0.00 | 0.00 | 1 | 1015.3 |
| 20260505194559 | 56 | 206 | 6.0 | 10.0 | 0.00 | 0.00 | 0.00 | 1 | 1015.4 |
| 20260505193058 | 56 | 207 | 6.0 | 11.0 | 0.00 | 0.00 | 0.00 | 1 | 1015.3 |
| 20260505191557 | 56 | 206 | 7.0 | 14.0 | 0.00 | 0.00 | 0.00 | 1 | 1015.5 |
| 20260505190045 | 56 | 206 | 5.0 | 10.0 | 0.00 | 0.00 | 0.00 | 1 | 1015.5 |
| 20260505184543 | 56 | 206 | 6.0 | 11.0 | 0.00 | 0.00 | 0.00 | 1 | 1015.4 |
| 20260505183037 | 56 | 206 | 6.0 | 12.0 | 0.00 | 0.00 | 0.00 | 1 | 1015.4 |
| 20260505181533 | 56 | 206 | 6.0 | 12.0 | 0.00 | 0.00 | 0.00 | 1 | 1015.3 |
| 20260505180041 | 56 | 206 | 5.0 | 11.0 | 0.00 | 0.00 | 0.00 | 1 | 1015.2 |
| 20260505174532 | 55 | 207 | 7.0 | 13.0 | 0.00 | 0.00 | 0.00 | 1 | 1015.2 |
| 20260505173018 | 55 | 206 | 6.0 | 10.0 | 0.00 | 0.00 | 0.00 | 1 | 1015.1 |
| 20260505171516 | 55 | 206 | 5.0 | 12.0 | 0.00 | 0.00 | 0.00 | 1 | 1015.0 |
| 20260505170019 | 55 | 207 | 5.0 | 10.0 | 0.00 | 0.00 | 0.00 | 1 | 1015.0 |
| 20260505164507 | 55 | 207 | 6.0 | 11.0 | 0.00 | 0.00 | 0.00 | 1 | 1014.9 |
| 20260505163002 | 55 | 206 | 5.0 | 11.0 | 0.00 | 0.00 | 0.00 | 1 | 1014.9 |
| 20260505161604 | 55 | 207 | 6.0 | 11.0 | 0.00 | 0.00 | 0.00 | 1 | 1014.8 |
| 20260505153056 | 56 | 134 | 6.0 | 11.0 | 0.00 | 0.00 | 0.00 | 80 | 1014.4 |
| 20260505151550 | 56 | 166 | 3.0 | 10.0 | 0.00 | 0.00 | 0.00 | 81 | 1014.4 |
| 20260505124527 | 54 | 140 | 4.0 | 11.0 | 0.00 | 0.00 | 0.00 | 81 | 1012.4 |
| 20260505123039 | 55 | 149 | 4.0 | 10.0 | 0.00 | 0.00 | 0.00 | 81 | 1012.3 |
| 20260505121524 | 54 | 175 | 4.0 | 8.0 | 0.00 | 0.00 | 0.00 | 83 | 1012.3 |
| 20260505120027 | 54 | 182 | 3.0 | 6.0 | 0.00 | 0.00 | 0.00 | 84 | 1012.1 |
| 20260505114520 | 54 | 181 | 4.0 | 10.0 | 0.00 | 0.00 | 0.00 | 84 | 1012.1 |
| 20260505113025 | 54 | 171 | 2.0 | 7.0 | 0.00 | 0.00 | 0.00 | 84 | 1011.8 |